EW4365 Weather Reports


Display with metric or nautical units.
time (UTC)temp
F
wind
direction
speed
MPH
gust
MPH
rain 1hr
in
rain 24hr
in
rain mn
in
humidity
%
barometer
mb
20260903020015 79 298 0.0 3.0 0.00 0.00 0.00 83 1014.1
20260903014514 79 298 1.0 3.0 0.00 0.00 0.00 83 1014.0
20260903013014 79 298 0.0 2.0 0.00 0.00 0.00 83 1014.0
20260903011514 79 298 0.0 2.0 0.00 0.00 0.00 82 1014.0
20260903010013 80 298 0.0 2.0 0.00 0.00 0.00 82 1013.9
20260903004517 80 298 0.0 2.0 0.00 0.00 0.00 81 1013.8
20260903003012 80 298 0.0 2.0 0.00 0.00 0.00 81 1013.6
20260903001515 81 298 0.0 2.0 0.00 0.00 0.00 79 1013.6
20260903000010 83 298 0.0 1.0 0.00 0.00 0.00 76 1013.6
20260902234514 84 298 1.0 2.0 0.00 0.00 0.00 73 1013.5
20260902233009 85 298 0.0 1.0 0.00 0.00 0.00 70 1013.5
20260902231516 87 298 0.0 3.0 0.00 0.00 0.00 66 1013.5
20260902230008 88 338 1.0 2.0 0.00 0.00 0.00 65 1013.4
20260902224508 89 338 0.0 2.0 0.00 0.00 0.00 62 1013.4
20260902223006 90 339 0.0 3.0 0.00 0.00 0.00 60 1013.6
20260902221505 90 270 1.0 7.0 0.00 0.00 0.00 59 1013.6
20260902220006 91 355 0.0 3.0 0.00 0.00 0.00 60 1013.5
20260902214504 91 255 1.0 5.0 0.00 0.00 0.00 58 1013.6
20260902213003 92 280 1.0 4.0 0.00 0.00 0.00 59 1013.7
20260902211502 92 269 1.0 8.0 0.00 0.00 0.00 59 1013.6
20260902210002 92 117 2.0 6.0 0.00 0.00 0.00 60 1013.7
20260902204601 91 266 2.0 8.0 0.00 0.00 0.00 59 1013.8
20260902203058 90 229 0.0 5.0 0.00 0.00 0.00 64 1014.0
20260902201556 92 231 2.0 5.0 0.00 0.00 0.00 57 1014.2
20260902200054 91 172 1.0 3.0 0.00 0.00 0.00 62 1014.4
20260902194553 90 229 2.0 4.0 0.00 0.00 0.00 61 1014.5
20260902193052 93 229 3.0 6.0 0.00 0.00 0.00 55 1014.6
20260902191553 93 340 1.0 4.0 0.00 0.00 0.00 59 1014.7
20260902190054 93 331 2.0 5.0 0.00 0.00 0.00 58 1014.9
20260902184558 93 343 2.0 7.0 0.00 0.04 0.00 56 1015.0
20260902183044 92 343 1.0 5.0 0.00 0.04 0.00 59 1015.1
20260902181544 92 232 2.0 6.0 0.00 0.04 0.00 59 1015.3
20260902180044 91 305 1.0 4.0 0.00 0.04 0.00 60 1015.5
20260902174539 91 350 3.0 8.0 0.00 0.07 0.00 60 1015.6
20260902173040 91 344 1.0 6.0 0.00 0.07 0.00 63 1015.9
20260902171536 90 347 3.0 8.0 0.00 0.07 0.00 62 1016.0
20260902170034 90 270 2.0 6.0 0.00 0.07 0.00 64 1016.1
20260902164534 89 350 1.0 4.0 0.00 0.07 0.00 63 1016.2
20260902163030 89 342 2.0 5.0 0.00 0.07 0.00 65 1016.2
20260902161527 88 338 1.0 5.0 0.00 0.07 0.00 67 1016.3
20260902160025 88 341 0.0 7.0 0.00 0.07 0.00 70 1016.2
20260902154521 87 250 1.0 5.0 0.00 0.10 0.00 71 1016.3
20260902153023 86 246 0.0 5.0 0.00 0.10 0.00 75 1016.4
20260902151516 86 227 0.0 5.0 0.00 0.10 0.00 74 1016.5
20260902150014 85 300 1.0 4.0 0.00 0.10 0.00 73 1016.4
20260902144519 84 302 1.0 4.0 0.00 0.10 0.00 76 1016.3
20260902143006 83 323 1.0 4.0 0.00 0.10 0.00 77 1016.3
20260902141503 82 306 0.0 3.0 0.00 0.10 0.00 78 1016.3
20260902140104 81 284 0.0 7.0 0.00 0.10 0.00 80 1016.2
20260902134605 80 307 1.0 3.0 0.00 0.10 0.00 84 1016.3
20260902133055 78 313 0.0 4.0 0.00 0.10 0.00 87 1016.2
20260902131550 76 224 0.0 4.0 0.00 0.10 0.00 89 1016.2
20260902130051 75 223 1.0 5.0 0.00 0.10 0.00 90 1016.2
20260902124550 74 184 0.0 2.0 0.00 0.10 0.00 92 1016.1
20260902123046 73 184 0.0 1.0 0.00 0.10 0.00 92 1016.1
20260902121547 73 184 0.0 2.0 0.00 0.10 0.00 93 1016.1
20260902120045 72 184 0.0 2.0 0.00 0.10 0.00 95 1016.1
20260902114545 71 184 0.0 1.0 0.00 0.10 0.00 95 1015.9
20260902113041 71 184 0.0 1.0 0.00 0.10 0.00 95 1015.9
20260902111540 70 184 0.0 2.0 0.00 0.10 0.00 94 1015.8
20260902110039 71 184 0.0 2.0 0.00 0.10 0.00 93 1015.8
20260902104538 71 184 0.0 2.0 0.00 0.10 0.00 94 1015.7
20260902103039 71 184 0.0 2.0 0.00 0.10 0.00 94 1015.6
20260902101536 71 184 1.0 2.0 0.00 0.10 0.00 93 1015.6
20260902100044 72 184 0.0 2.0 0.00 0.10 0.00 93 1015.6
20260902094535 72 185 0.0 3.0 0.00 0.10 0.00 93 1015.5
20260902093034 72 187 0.0 2.0 0.00 0.10 0.00 94 1015.5
20260902091557 72 188 1.0 4.0 0.00 0.10 0.00 94 1015.6
20260902090034 72 187 1.0 2.0 0.00 0.10 0.00 94 1015.6
20260902084539 72 186 0.0 2.0 0.00 0.10 0.00 94 1015.5
20260902083030 72 186 0.0 2.0 0.00 0.10 0.00 94 1015.4
20260902081533 72 186 0.0 2.0 0.00 0.10 0.00 95 1015.2
20260902080036 71 186 1.0 2.0 0.00 0.10 0.00 95 1015.2
20260902074530 71 186 0.0 0.0 0.00 0.10 0.00 94 1015.2
20260902073025 71 186 0.0 1.0 0.00 0.10 0.00 93 1015.1
20260902071546 72 186 0.0 2.0 0.00 0.10 0.00 92 1015.1
20260902070022 72 186 0.0 1.0 0.00 0.10 0.00 92 1015.2
20260902064519 73 186 0.0 1.0 0.00 0.10 0.00 91 1015.2
20260902063025 74 186 0.0 0.0 0.00 0.10 0.00 91 1015.1
20260902061514 74 186 0.0 0.0 0.00 0.10 0.00 90 1015.2
20260902060021 75 186 0.0 1.0 0.00 0.10 0.00 89 1015.2
20260902054522 75 186 0.0 2.0 0.00 0.10 0.00 89 1015.0
20260902053009 75 186 0.0 4.0 0.00 0.10 0.00 89 1014.9
20260902051509 75 194 0.0 2.0 0.00 0.10 0.00 90 1014.9
20260902050009 75 194 0.0 3.0 0.00 0.10 0.00 91 1014.8
20260902044514 75 194 0.0 1.0 0.00 0.10 0.00 90 1014.7
20260902043004 76 194 0.0 2.0 0.00 0.10 0.00 89 1014.7
20260902041503 76 194 0.0 1.0 0.00 0.10 0.00 88 1014.8
20260902040100 77 194 0.0 1.0 0.00 0.10 0.00 87 1014.8
20260902034558 77 194 0.0 2.0 0.00 0.10 0.10 86 1014.7
20260902033058 78 194 0.0 3.0 0.00 0.10 0.10 86 1014.6
20260902031557 78 193 0.0 4.0 0.00 0.10 0.10 86 1014.7
20260902030056 78 184 0.0 3.0 0.00 0.10 0.10 85 1014.8
20260902024556 78 173 0.0 4.0 0.00 0.10 0.10 86 1014.7
20260902023057 78 238 0.0 4.0 0.00 0.10 0.10 87 1014.7
20260902021559 78 213 0.0 2.0 0.00 0.10 0.10 89 1014.7